Time,TemperatureF,DewpointF,PressureIn,WindDirection,WindDirectionDegrees,WindSpeedMPH,WindSpeedGustMPH,Humidity,HourlyPrecipIn,Conditions,Clouds,dailyrainin,SolarRadiationWatts/m^2,SoftwareType,DateUTC
2013-02-26 00:01:00,28.1,25.8,28.61,NW,323,3.0,0.0,91,0.00,,,0.00,0,WeatherTracker,2013-02-26 06:01:00,
2013-02-26 00:06:00,28.1,25.8,28.61,North,349,3.0,0.0,91,0.00,,,0.00,0,WeatherTracker,2013-02-26 06:06:00,
2013-02-26 00:12:00,28.1,25.8,28.61,North,5,3.0,0.0,91,0.00,,,0.00,0,WeatherTracker,2013-02-26 06:12:00,
2013-02-26 00:17:00,28.0,25.7,28.60,NNW,340,6.0,0.0,91,0.00,,,0.00,0,WeatherTracker,2013-02-26 06:17:00,
2013-02-26 00:22:00,28.0,25.7,28.60,North,360,4.0,0.0,91,0.00,,,0.00,0,WeatherTracker,2013-02-26 06:22:00,
2013-02-26 00:27:00,27.9,25.6,28.60,North,355,7.0,0.0,91,0.00,,,0.00,0,WeatherTracker,2013-02-26 06:27:00,
2013-02-26 00:32:00,27.9,25.6,28.60,North,5,2.0,0.0,91,0.00,,,0.00,0,WeatherTracker,2013-02-26 06:32:00,
2013-02-26 00:37:00,27.9,25.6,28.60,North,5,4.0,0.0,91,0.00,,,0.00,0,WeatherTracker,2013-02-26 06:37:00,
2013-02-26 00:42:00,27.8,25.5,28.60,NNE,15,9.0,0.0,91,0.00,,,0.00,0,WeatherTracker,2013-02-26 06:42:00,
2013-02-26 00:47:00,27.8,25.5,28.59,NNE,18,4.0,0.0,91,0.00,,,0.00,0,WeatherTracker,2013-02-26 06:47:00,
2013-02-26 00:52:00,27.8,25.5,28.59,NNE,30,5.0,0.0,91,0.00,,,0.00,0,WeatherTracker,2013-02-26 06:52:00,
2013-02-26 00:57:00,27.8,25.5,28.59,NNE,17,7.0,0.0,91,0.00,,,0.00,0,WeatherTracker,2013-02-26 06:57:00,
2013-02-26 01:02:00,27.7,25.4,28.59,NNE,22,3.0,0.0,91,0.00,,,0.00,0,WeatherTracker,2013-02-26 07:02:00,
2013-02-26 01:07:00,27.7,25.4,28.59,North,11,6.0,0.0,91,0.00,,,0.00,0,WeatherTracker,2013-02-26 07:07:00,
2013-02-26 01:12:00,27.7,25.4,28.59,North,360,4.0,0.0,91,0.00,,,0.00,0,WeatherTracker,2013-02-26 07:12:00,
2013-02-26 01:17:00,27.7,25.4,28.58,NNE,19,5.0,0.0,91,0.00,,,0.00,0,WeatherTracker,2013-02-26 07:17:00,
2013-02-26 01:22:00,27.7,25.4,28.58,NNE,18,5.0,0.0,91,0.00,,,0.00,0,WeatherTracker,2013-02-26 07:22:00,
2013-02-26 01:27:00,27.7,25.7,28.58,NNE,30,4.0,0.0,92,0.00,,,0.00,0,WeatherTracker,2013-02-26 07:27:00,
2013-02-26 01:33:00,27.7,25.7,28.57,NNW,327,3.0,0.0,92,0.00,,,0.00,0,WeatherTracker,2013-02-26 07:33:00,
2013-02-26 01:38:00,27.8,25.8,28.57,NNE,25,5.0,0.0,92,0.00,,,0.00,0,WeatherTracker,2013-02-26 07:38:00,
2013-02-26 01:43:00,27.7,25.4,28.58,NNW,340,4.0,0.0,91,0.00,,,0.00,0,WeatherTracker,2013-02-26 07:43:00,
2013-02-26 01:48:00,27.6,25.3,28.58,NE,51,9.0,0.0,91,0.00,,,0.00,0,WeatherTracker,2013-02-26 07:48:00,
2013-02-26 01:53:00,27.5,25.5,28.58,NNE,21,5.0,0.0,92,0.00,,,0.00,0,WeatherTracker,2013-02-26 07:53:00,
2013-02-26 01:58:00,27.4,25.4,28.57,NNE,17,5.0,0.0,92,0.00,,,0.00,0,WeatherTracker,2013-02-26 07:58:00,
2013-02-26 02:03:00,27.4,25.4,28.57,NNE,15,8.0,0.0,92,0.00,,,0.00,0,WeatherTracker,2013-02-26 08:03:00,
2013-02-26 02:08:00,27.4,25.4,28.57,North,360,5.0,0.0,92,0.00,,,0.00,0,WeatherTracker,2013-02-26 08:08:00,
2013-02-26 02:13:00,27.4,25.4,28.59,NNE,22,4.0,0.0,92,0.00,,,0.00,0,WeatherTracker,2013-02-26 08:13:00,
2013-02-26 02:18:00,27.4,25.4,28.59,NNE,24,6.0,0.0,92,0.00,,,0.00,0,WeatherTracker,2013-02-26 08:18:00,
2013-02-26 02:23:00,27.4,25.4,28.59,NNE,29,6.0,0.0,92,0.00,,,0.00,0,WeatherTracker,2013-02-26 08:23:00,
2013-02-26 02:28:00,27.4,25.4,28.59,NNE,14,2.0,0.0,92,0.00,,,0.00,0,WeatherTracker,2013-02-26 08:28:00,
2013-02-26 02:33:00,27.4,25.4,28.59,NNE,20,4.0,0.0,92,0.00,,,0.00,0,WeatherTracker,2013-02-26 08:33:00,
2013-02-26 02:38:00,27.4,25.4,28.59,North,10,6.0,0.0,92,0.00,,,0.00,0,WeatherTracker,2013-02-26 08:38:00,
2013-02-26 02:43:00,27.4,25.4,28.58,North,5,2.0,0.0,92,0.00,,,0.00,0,WeatherTracker,2013-02-26 08:43:00,
2013-02-26 02:48:00,27.4,25.4,28.58,North,5,4.0,0.0,92,0.00,,,0.00,0,WeatherTracker,2013-02-26 08:48:00,
2013-02-26 02:53:00,27.4,25.4,28.58,NNW,335,1.0,0.0,92,0.00,,,0.00,0,WeatherTracker,2013-02-26 08:53:00,
2013-02-26 02:58:00,27.4,25.4,28.56,NNE,17,5.0,0.0,92,0.00,,,0.00,0,WeatherTracker,2013-02-26 08:58:00,
2013-02-26 03:03:00,27.3,25.3,28.56,North,360,4.0,0.0,92,0.00,,,0.00,0,WeatherTracker,2013-02-26 09:03:00,
2013-02-26 03:08:00,27.1,25.1,28.56,NNE,13,4.0,0.0,92,0.00,,,0.00,0,WeatherTracker,2013-02-26 09:08:00,
2013-02-26 03:13:00,27.0,25.0,28.56,North,5,9.0,0.0,92,0.00,,,0.00,0,WeatherTracker,2013-02-26 09:13:00,
2013-02-26 03:19:00,26.9,24.9,28.56,North,360,6.0,0.0,92,0.00,,,0.00,0,WeatherTracker,2013-02-26 09:19:00,
2013-02-26 03:24:00,26.7,24.7,28.56,North,5,10.0,0.0,92,0.00,,,0.00,0,WeatherTracker,2013-02-26 09:24:00,
2013-02-26 03:29:00,26.6,24.6,28.55,NNW,336,6.0,0.0,92,0.00,,,0.00,0,WeatherTracker,2013-02-26 09:29:00,
2013-02-26 03:34:00,26.6,24.6,28.55,NNE,13,7.0,0.0,92,0.00,,,0.00,0,WeatherTracker,2013-02-26 09:34:00,
2013-02-26 03:39:00,26.5,24.5,28.55,North,5,4.0,0.0,92,0.00,,,0.00,0,WeatherTracker,2013-02-26 09:39:00,
2013-02-26 03:44:00,26.5,24.5,28.56,North,5,5.0,0.0,92,0.00,,,0.00,0,WeatherTracker,2013-02-26 09:44:00,
2013-02-26 03:49:00,26.5,24.5,28.56,North,5,5.0,0.0,92,0.00,,,0.00,0,WeatherTracker,2013-02-26 09:49:00,
2013-02-26 03:54:00,26.4,24.4,28.56,North,5,4.0,0.0,92,0.00,,,0.00,0,WeatherTracker,2013-02-26 09:54:00,
2013-02-26 03:59:00,26.3,24.3,28.56,NNE,18,4.0,0.0,92,0.00,,,0.00,0,WeatherTracker,2013-02-26 09:59:00,
2013-02-26 04:04:00,26.3,24.3,28.56,NNE,19,4.0,0.0,92,0.00,,,0.00,0,WeatherTracker,2013-02-26 10:04:00,
2013-02-26 04:09:00,26.2,24.2,28.56,NNE,15,4.0,0.0,92,0.00,,,0.00,0,WeatherTracker,2013-02-26 10:09:00,
2013-02-26 04:14:00,26.1,24.1,28.56,NNE,24,4.0,0.0,92,0.00,,,0.00,0,WeatherTracker,2013-02-26 10:14:00,
2013-02-26 04:19:00,26.1,24.1,28.56,NNE,13,9.0,0.0,92,0.00,,,0.00,0,WeatherTracker,2013-02-26 10:19:00,
2013-02-26 04:24:00,26.0,24.0,28.56,North,355,4.0,0.0,92,0.00,,,0.00,0,WeatherTracker,2013-02-26 10:24:00,
2013-02-26 04:29:00,25.8,23.8,28.56,NNE,15,4.0,0.0,92,0.00,,,0.00,0,WeatherTracker,2013-02-26 10:29:00,
2013-02-26 04:34:00,25.7,23.7,28.56,NNE,18,4.0,0.0,92,0.00,,,0.00,0,WeatherTracker,2013-02-26 10:34:00,
2013-02-26 04:39:00,25.7,24.0,28.56,North,360,3.0,0.0,93,0.00,,,0.00,0,WeatherTracker,2013-02-26 10:39:00,
2013-02-26 04:44:00,25.6,23.9,28.56,North,355,4.0,0.0,93,0.00,,,0.00,0,WeatherTracker,2013-02-26 10:44:00,
2013-02-26 04:49:00,25.6,23.9,28.56,NNE,19,6.0,0.0,93,0.00,,,0.00,0,WeatherTracker,2013-02-26 10:49:00,
2013-02-26 04:54:00,25.5,23.8,28.56,NNE,22,9.0,0.0,93,0.00,,,0.00,0,WeatherTracker,2013-02-26 10:54:00,
2013-02-26 05:00:00,25.4,23.7,28.56,North,10,4.0,0.0,93,0.00,,,0.00,0,WeatherTracker,2013-02-26 11:00:00,
2013-02-26 05:05:00,25.3,23.3,28.56,NNW,344,4.0,0.0,92,0.00,,,0.00,0,WeatherTracker,2013-02-26 11:05:00,
2013-02-26 05:10:00,25.2,23.5,28.56,NNW,337,6.0,0.0,93,0.00,,,0.00,0,WeatherTracker,2013-02-26 11:10:00,
2013-02-26 05:15:00,25.1,23.4,28.57,NNW,340,3.0,0.0,93,0.00,,,0.00,0,WeatherTracker,2013-02-26 11:15:00,
2013-02-26 05:20:00,25.1,23.4,28.57,NNE,17,4.0,0.0,93,0.00,,,0.00,0,WeatherTracker,2013-02-26 11:20:00,
2013-02-26 05:25:00,25.1,23.4,28.57,North,5,3.0,0.0,93,0.00,,,0.00,0,WeatherTracker,2013-02-26 11:25:00,
2013-02-26 05:30:00,25.0,23.3,28.57,NNE,14,9.0,0.0,93,0.00,,,0.00,0,WeatherTracker,2013-02-26 11:30:00,
2013-02-26 05:35:00,24.9,23.2,28.57,NNE,21,3.0,0.0,93,0.00,,,0.00,0,WeatherTracker,2013-02-26 11:35:00,
2013-02-26 05:40:00,24.9,23.2,28.57,NNE,12,6.0,0.0,93,0.00,,,0.00,0,WeatherTracker,2013-02-26 11:40:00,
2013-02-26 05:45:00,24.9,23.2,28.56,North,350,4.0,0.0,93,0.00,,,0.00,0,WeatherTracker,2013-02-26 11:45:00,
2013-02-26 05:50:00,24.9,23.2,28.56,NNE,33,4.0,0.0,93,0.00,,,0.00,0,WeatherTracker,2013-02-26 11:50:00,
2013-02-26 05:55:00,24.9,23.2,28.56,NE,41,9.0,0.0,93,0.00,,,0.00,0,WeatherTracker,2013-02-26 11:55:00,
2013-02-26 06:00:00,24.8,23.1,28.56,North,360,3.0,0.0,93,0.00,,,0.00,0,WeatherTracker,2013-02-26 12:00:00,
2013-02-26 06:05:00,24.8,23.1,28.56,NW,321,7.0,0.0,93,0.00,,,0.00,0,WeatherTracker,2013-02-26 12:05:00,
2013-02-26 06:10:00,24.8,23.1,28.56,NNE,22,4.0,0.0,93,0.00,,,0.00,0,WeatherTracker,2013-02-26 12:10:00,
2013-02-26 06:15:00,24.8,23.1,28.56,NNE,18,9.0,0.0,93,0.00,,,0.00,0,WeatherTracker,2013-02-26 12:15:00,
2013-02-26 06:20:00,24.8,23.1,28.56,NNW,334,10.0,0.0,93,0.00,,,0.00,0,WeatherTracker,2013-02-26 12:20:00,
2013-02-26 06:26:00,24.7,23.0,28.56,NNW,335,10.0,0.0,93,0.00,,,0.00,0,WeatherTracker,2013-02-26 12:26:00,
2013-02-26 06:31:00,24.6,22.9,28.56,North,9,4.0,0.0,93,0.00,,,0.00,0,WeatherTracker,2013-02-26 12:31:00,
2013-02-26 06:36:00,24.6,22.9,28.56,NNE,18,4.0,0.0,93,0.00,,,0.00,0,WeatherTracker,2013-02-26 12:36:00,
2013-02-26 06:41:00,24.5,22.8,28.56,NNW,341,3.0,0.0,93,0.00,,,0.00,0,WeatherTracker,2013-02-26 12:41:00,
2013-02-26 06:46:00,24.6,22.9,28.56,NNW,331,3.0,0.0,93,0.00,,,0.00,0,WeatherTracker,2013-02-26 12:46:00,
2013-02-26 06:51:00,24.7,23.0,28.56,North,5,4.0,0.0,93,0.00,,,0.00,0,WeatherTracker,2013-02-26 12:51:00,
2013-02-26 06:56:00,24.7,23.0,28.56,NNE,20,4.0,0.0,93,0.00,,,0.00,0,WeatherTracker,2013-02-26 12:56:00,
2013-02-26 07:01:00,24.6,22.9,28.55,NNW,346,10.0,0.0,93,0.00,,,0.00,0,WeatherTracker,2013-02-26 13:01:00,
2013-02-26 07:06:00,24.6,22.9,28.55,NW,310,3.0,0.0,93,0.00,,,0.00,0,WeatherTracker,2013-02-26 13:06:00,
2013-02-26 07:11:00,24.6,22.9,28.55,NNW,336,7.0,0.0,93,0.00,,,0.00,0,WeatherTracker,2013-02-26 13:11:00,
2013-02-26 07:16:00,24.6,22.9,28.55,NNE,14,4.0,0.0,93,0.00,,,0.00,0,WeatherTracker,2013-02-26 13:16:00,
2013-02-26 07:21:00,24.6,22.9,28.55,NNW,345,4.0,0.0,93,0.00,,,0.00,0,WeatherTracker,2013-02-26 13:21:00,
2013-02-26 07:26:00,24.7,23.0,28.55,North,355,3.0,0.0,93,0.00,,,0.00,5,WeatherTracker,2013-02-26 13:26:00,
2013-02-26 07:31:00,24.7,23.0,28.56,North,350,2.0,0.0,93,0.00,,,0.00,7,WeatherTracker,2013-02-26 13:31:00,
2013-02-26 07:36:00,24.7,23.0,28.56,North,349,6.0,0.0,93,0.00,,,0.00,11,WeatherTracker,2013-02-26 13:36:00,
2013-02-26 07:41:00,24.8,23.1,28.56,NNW,344,3.0,0.0,93,0.00,,,0.00,11,WeatherTracker,2013-02-26 13:41:00,
2013-02-26 07:46:00,24.8,23.1,28.56,NNE,23,9.0,0.0,93,0.00,,,0.00,12,WeatherTracker,2013-02-26 13:46:00,
2013-02-26 07:51:00,24.8,23.1,28.56,NNW,348,3.0,0.0,93,0.00,,,0.00,14,WeatherTracker,2013-02-26 13:51:00,
2013-02-26 07:56:00,24.9,23.2,28.56,North,350,9.0,0.0,93,0.00,,,0.00,14,WeatherTracker,2013-02-26 13:56:00,
2013-02-26 08:01:00,24.9,23.2,28.57,NNE,14,5.0,0.0,93,0.00,,,0.00,18,WeatherTracker,2013-02-26 14:01:00,
2013-02-26 08:06:00,24.8,23.1,28.57,NNW,338,2.0,0.0,93,0.00,,,0.00,21,WeatherTracker,2013-02-26 14:06:00,
2013-02-26 08:11:00,24.9,23.2,28.57,NW,322,3.0,0.0,93,0.00,,,0.00,26,WeatherTracker,2013-02-26 14:11:00,
2013-02-26 08:16:00,24.9,23.2,28.57,NNE,22,9.0,0.0,93,0.00,,,0.00,26,WeatherTracker,2013-02-26 14:16:00,
2013-02-26 08:21:00,24.9,23.2,28.57,NW,326,5.0,0.0,93,0.00,,,0.00,30,WeatherTracker,2013-02-26 14:21:00,
2013-02-26 08:27:00,24.9,23.2,28.57,North,5,8.0,0.0,93,0.00,,,0.00,32,WeatherTracker,2013-02-26 14:27:00,
2013-02-26 08:32:00,24.9,23.2,28.57,North,355,9.0,0.0,93,0.00,,,0.00,33,WeatherTracker,2013-02-26 14:32:00,
2013-02-26 08:37:00,24.9,23.2,28.57,NNW,341,4.0,0.0,93,0.00,,,0.00,39,WeatherTracker,2013-02-26 14:37:00,
2013-02-26 08:42:00,24.9,23.2,28.57,NW,325,3.0,0.0,93,0.00,,,0.00,42,WeatherTracker,2013-02-26 14:42:00,
2013-02-26 08:47:00,24.9,23.2,28.58,NNE,17,5.0,0.0,93,0.00,,,0.00,40,WeatherTracker,2013-02-26 14:47:00,
2013-02-26 08:52:00,25.0,23.3,28.58,North,355,6.0,0.0,93,0.00,,,0.00,39,WeatherTracker,2013-02-26 14:52:00,
2013-02-26 08:57:00,25.0,23.3,28.58,NW,315,4.0,0.0,93,0.00,,,0.00,39,WeatherTracker,2013-02-26 14:57:00,
2013-02-26 09:02:00,25.1,23.1,28.57,North,360,9.0,0.0,92,0.00,,,0.00,46,WeatherTracker,2013-02-26 15:02:00,
2013-02-26 09:07:00,25.1,23.1,28.57,NNW,346,4.0,0.0,92,0.00,,,0.00,53,WeatherTracker,2013-02-26 15:07:00,
2013-02-26 09:12:00,25.2,23.2,28.57,NNE,29,5.0,0.0,92,0.00,,,0.00,56,WeatherTracker,2013-02-26 15:12:00,
2013-02-26 09:17:00,25.3,23.3,28.57,NNE,25,4.0,0.0,92,0.00,,,0.00,60,WeatherTracker,2013-02-26 15:17:00,
2013-02-26 09:22:00,25.3,23.3,28.57,NNE,14,9.0,0.0,92,0.00,,,0.00,63,WeatherTracker,2013-02-26 15:22:00,
2013-02-26 09:27:00,25.3,23.3,28.57,NW,326,6.0,0.0,92,0.00,,,0.00,60,WeatherTracker,2013-02-26 15:27:00,
2013-02-26 09:32:00,25.3,23.3,28.57,NE,44,6.0,0.0,92,0.00,,,0.00,67,WeatherTracker,2013-02-26 15:32:00,
2013-02-26 09:37:00,25.4,23.4,28.57,NNW,341,3.0,0.0,92,0.00,,,0.00,70,WeatherTracker,2013-02-26 15:37:00,
2013-02-26 09:42:00,25.5,23.5,28.57,NNW,333,5.0,0.0,92,0.00,,,0.00,74,WeatherTracker,2013-02-26 15:42:00,
2013-02-26 09:47:00,25.6,23.6,28.58,NNW,333,3.0,0.0,92,0.00,,,0.00,79,WeatherTracker,2013-02-26 15:47:00,
2013-02-26 09:53:00,25.6,23.6,28.58,NNW,328,2.0,0.0,92,0.00,,,0.00,81,WeatherTracker,2013-02-26 15:53:00,
2013-02-26 09:58:00,25.7,23.7,28.58,NW,322,3.0,0.0,92,0.00,,,0.00,81,WeatherTracker,2013-02-26 15:58:00,
2013-02-26 10:03:00,25.8,23.8,28.58,NW,319,5.0,0.0,92,0.00,,,0.00,91,WeatherTracker,2013-02-26 16:03:00,
2013-02-26 10:08:00,25.9,23.9,28.58,NNE,13,7.0,0.0,92,0.00,,,0.00,105,WeatherTracker,2013-02-26 16:08:00,
2013-02-26 10:13:00,25.9,23.9,28.58,NNE,13,3.0,0.0,92,0.00,,,0.00,109,WeatherTracker,2013-02-26 16:13:00,
2013-02-26 10:18:00,26.1,24.1,28.57,NW,317,5.0,0.0,92,0.00,,,0.00,114,WeatherTracker,2013-02-26 16:18:00,
2013-02-26 10:23:00,26.2,23.9,28.57,North,11,4.0,0.0,91,0.00,,,0.00,128,WeatherTracker,2013-02-26 16:23:00,
2013-02-26 10:28:00,26.3,24.0,28.57,NNE,23,5.0,0.0,91,0.00,,,0.00,137,WeatherTracker,2013-02-26 16:28:00,
2013-02-26 10:33:00,26.5,24.2,28.57,NW,323,7.0,0.0,91,0.00,,,0.00,120,WeatherTracker,2013-02-26 16:33:00,
2013-02-26 10:38:00,26.6,24.3,28.57,NNE,27,3.0,0.0,91,0.00,,,0.00,144,WeatherTracker,2013-02-26 16:38:00,
2013-02-26 10:43:00,26.6,24.3,28.57,NNE,19,7.0,0.0,91,0.00,,,0.00,153,WeatherTracker,2013-02-26 16:43:00,
2013-02-26 10:48:00,26.7,24.2,28.57,North,360,7.0,0.0,90,0.00,,,0.00,174,WeatherTracker,2013-02-26 16:48:00,
2013-02-26 10:53:00,26.8,24.3,28.57,NNW,338,5.0,0.0,90,0.00,,,0.00,167,WeatherTracker,2013-02-26 16:53:00,
2013-02-26 10:58:00,27.0,24.5,28.57,North,5,6.0,0.0,90,0.00,,,0.00,165,WeatherTracker,2013-02-26 16:58:00,
2013-02-26 11:03:00,27.2,24.7,28.57,North,360,6.0,0.0,90,0.00,,,0.00,197,WeatherTracker,2013-02-26 17:03:00,
2013-02-26 11:08:00,27.2,24.4,28.57,NNW,348,4.0,0.0,89,0.00,,,0.00,171,WeatherTracker,2013-02-26 17:08:00,
2013-02-26 11:13:00,27.4,24.6,28.57,North,10,5.0,0.0,89,0.00,,,0.00,185,WeatherTracker,2013-02-26 17:13:00,
2013-02-26 11:18:00,27.6,24.8,28.57,NNE,15,7.0,0.0,89,0.00,,,0.00,204,WeatherTracker,2013-02-26 17:18:00,
2013-02-26 11:23:00,27.7,24.9,28.57,North,360,4.0,0.0,89,0.00,,,0.00,197,WeatherTracker,2013-02-26 17:23:00,
2013-02-26 11:28:00,27.9,25.1,28.56,NW,319,7.0,0.0,89,0.00,,,0.00,202,WeatherTracker,2013-02-26 17:28:00,
2013-02-26 11:33:00,28.0,24.9,28.56,NNW,343,4.0,0.0,88,0.00,,,0.00,234,WeatherTracker,2013-02-26 17:33:00,
2013-02-26 11:38:00,28.1,25.0,28.56,NNW,340,6.0,0.0,88,0.00,,,0.00,223,WeatherTracker,2013-02-26 17:38:00,
2013-02-26 11:43:00,28.4,25.3,28.56,NW,309,6.0,0.0,88,0.00,,,0.00,202,WeatherTracker,2013-02-26 17:43:00,
2013-02-26 11:49:00,28.6,25.5,28.56,NNE,22,6.0,0.0,88,0.00,,,0.00,220,WeatherTracker,2013-02-26 17:49:00,
2013-02-26 11:54:00,28.7,25.3,28.56,North,360,5.0,0.0,87,0.00,,,0.00,269,WeatherTracker,2013-02-26 17:54:00,
2013-02-26 11:59:00,28.8,25.4,28.55,NNE,14,6.0,0.0,87,0.00,,,0.00,292,WeatherTracker,2013-02-26 17:59:00,
2013-02-26 12:04:00,29.1,25.7,28.55,North,360,5.0,0.0,87,0.00,,,0.00,297,WeatherTracker,2013-02-26 18:04:00,
2013-02-26 12:09:00,29.5,26.1,28.55,North,360,8.0,0.0,87,0.00,,,0.00,288,WeatherTracker,2013-02-26 18:09:00,
2013-02-26 12:14:00,29.6,25.9,28.55,NNE,19,5.0,0.0,86,0.00,,,0.00,353,WeatherTracker,2013-02-26 18:14:00,
2013-02-26 12:19:00,29.7,26.0,28.55,North,360,4.0,0.0,86,0.00,,,0.00,299,WeatherTracker,2013-02-26 18:19:00,
2013-02-26 12:24:00,29.9,26.2,28.55,NNE,19,6.0,0.0,86,0.00,,,0.00,299,WeatherTracker,2013-02-26 18:24:00,
2013-02-26 12:29:00,30.3,26.6,28.54,NE,34,10.0,0.0,86,0.00,,,0.00,343,WeatherTracker,2013-02-26 18:29:00,
2013-02-26 12:34:00,30.5,26.5,28.54,NNE,18,6.0,0.0,85,0.00,,,0.00,482,WeatherTracker,2013-02-26 18:34:00,
2013-02-26 12:39:00,30.7,26.4,28.54,NNE,25,5.0,0.0,84,0.00,,,0.00,383,WeatherTracker,2013-02-26 18:39:00,
2013-02-26 12:44:00,31.1,26.8,28.53,NNE,13,6.0,0.0,84,0.00,,,0.00,454,WeatherTracker,2013-02-26 18:44:00,
2013-02-26 12:49:00,31.5,26.9,28.53,NNW,342,4.0,0.0,83,0.00,,,0.00,323,WeatherTracker,2013-02-26 18:49:00,
2013-02-26 12:54:00,31.5,26.7,28.53,North,355,7.0,0.0,82,0.00,,,0.00,322,WeatherTracker,2013-02-26 18:54:00,
2013-02-26 12:59:00,31.4,26.6,28.52,NNE,22,7.0,0.0,82,0.00,,,0.00,294,WeatherTracker,2013-02-26 18:59:00,
2013-02-26 13:04:00,31.4,26.6,28.52,NNE,24,5.0,0.0,82,0.00,,,0.00,301,WeatherTracker,2013-02-26 19:04:00,
2013-02-26 13:09:00,31.5,26.7,28.52,NNE,28,8.0,0.0,82,0.00,,,0.00,346,WeatherTracker,2013-02-26 19:09:00,
2013-02-26 13:14:00,31.7,26.8,28.52,NNW,329,4.0,0.0,82,0.00,,,0.00,415,WeatherTracker,2013-02-26 19:14:00,
2013-02-26 13:19:00,31.9,27.0,28.52,NNW,346,9.0,0.0,82,0.00,,,0.00,413,WeatherTracker,2013-02-26 19:19:00,
2013-02-26 13:24:00,32.1,26.9,28.52,North,355,12.0,0.0,81,0.00,,,0.00,362,WeatherTracker,2013-02-26 19:24:00,
2013-02-26 13:29:00,32.3,27.1,28.51,North,355,8.0,0.0,81,0.00,,,0.00,434,WeatherTracker,2013-02-26 19:29:00,
2013-02-26 13:34:00,32.3,27.1,28.51,NNE,20,7.0,0.0,81,0.00,,,0.00,475,WeatherTracker,2013-02-26 19:34:00,
2013-02-26 13:39:00,32.6,27.4,28.51,North,355,5.0,0.0,81,0.00,,,0.00,429,WeatherTracker,2013-02-26 19:39:00,
2013-02-26 13:44:00,32.7,27.5,28.51,North,9,7.0,0.0,81,0.00,,,0.00,348,WeatherTracker,2013-02-26 19:44:00,
2013-02-26 13:50:00,32.6,27.1,28.51,North,355,7.0,0.0,80,0.00,,,0.00,308,WeatherTracker,2013-02-26 19:50:00,
2013-02-26 13:55:00,32.4,26.9,28.51,NNE,19,5.0,0.0,80,0.00,,,0.00,253,WeatherTracker,2013-02-26 19:55:00,
2013-02-26 14:00:00,32.3,26.8,28.51,NNE,16,5.0,0.0,80,0.00,,,0.00,216,WeatherTracker,2013-02-26 20:00:00,
2013-02-26 14:05:00,31.9,26.4,28.51,North,360,4.0,0.0,80,0.00,,,0.00,171,WeatherTracker,2013-02-26 20:05:00,
2013-02-26 14:10:00,31.5,26.7,28.51,NNW,330,6.0,0.0,82,0.00,,,0.00,179,WeatherTracker,2013-02-26 20:10:00,
2013-02-26 14:15:00,31.4,26.8,28.51,North,360,4.0,0.0,83,0.00,,,0.00,176,WeatherTracker,2013-02-26 20:15:00,
2013-02-26 14:20:00,31.2,26.6,28.51,North,355,9.0,0.0,83,0.00,,,0.00,192,WeatherTracker,2013-02-26 20:20:00,
2013-02-26 14:25:00,31.1,26.8,28.51,North,9,4.0,0.0,84,0.00,,,0.00,207,WeatherTracker,2013-02-26 20:25:00,
2013-02-26 14:30:00,31.0,27.0,28.51,NNW,333,4.0,0.0,85,0.00,,,0.00,214,WeatherTracker,2013-02-26 20:30:00,
2013-02-26 14:35:00,31.0,27.0,28.51,North,351,6.0,0.0,85,0.00,,,0.00,220,WeatherTracker,2013-02-26 20:35:00,
2013-02-26 14:40:00,30.8,27.1,28.51,NE,34,7.0,0.0,86,0.00,,,0.00,216,WeatherTracker,2013-02-26 20:40:00,
2013-02-26 14:45:00,30.8,27.4,28.51,North,5,6.0,0.0,87,0.00,,,0.00,230,WeatherTracker,2013-02-26 20:45:00,
2013-02-26 14:50:00,30.9,27.5,28.51,NNW,348,3.0,0.0,87,0.00,,,0.00,218,WeatherTracker,2013-02-26 20:50:00,
2013-02-26 14:55:00,31.0,27.6,28.51,NW,309,9.0,0.0,87,0.00,,,0.00,229,WeatherTracker,2013-02-26 20:55:00,
2013-02-26 15:00:00,31.0,27.3,28.51,NNW,337,3.0,0.0,86,0.00,,,0.00,218,WeatherTracker,2013-02-26 21:00:00,
2013-02-26 15:05:00,31.0,27.3,28.51,North,351,10.0,0.0,86,0.00,,,0.00,188,WeatherTracker,2013-02-26 21:05:00,
2013-02-26 15:10:00,30.9,27.2,28.51,NNE,14,5.0,0.0,86,0.00,,,0.00,171,WeatherTracker,2013-02-26 21:10:00,
2013-02-26 15:15:00,30.8,27.1,28.52,NW,324,6.0,0.0,86,0.00,,,0.00,135,WeatherTracker,2013-02-26 21:15:00,
2013-02-26 15:20:00,30.7,27.0,28.52,NNW,340,9.0,0.0,86,0.00,,,0.00,134,WeatherTracker,2013-02-26 21:20:00,
2013-02-26 15:25:00,30.6,27.2,28.52,NW,322,8.0,0.0,87,0.00,,,0.00,128,WeatherTracker,2013-02-26 21:25:00,
2013-02-26 15:30:00,30.5,26.8,28.52,NW,318,7.0,0.0,86,0.00,,,0.00,109,WeatherTracker,2013-02-26 21:30:00,
2013-02-26 15:36:00,30.3,26.9,28.52,WNW,302,7.0,0.0,87,0.00,,,0.00,130,WeatherTracker,2013-02-26 21:36:00,
2013-02-26 15:41:00,30.3,26.9,28.52,NW,323,5.0,0.0,87,0.00,,,0.00,141,WeatherTracker,2013-02-26 21:41:00,
2013-02-26 15:46:00,30.3,26.9,28.53,NNW,330,5.0,0.0,87,0.00,,,0.00,134,WeatherTracker,2013-02-26 21:46:00,
2013-02-26 15:51:00,30.3,26.9,28.53,NNW,327,6.0,0.0,87,0.00,,,0.00,121,WeatherTracker,2013-02-26 21:51:00,
2013-02-26 15:56:00,30.3,26.9,28.53,NW,315,7.0,0.0,87,0.00,,,0.00,109,WeatherTracker,2013-02-26 21:56:00,
2013-02-26 16:01:00,30.2,27.1,28.53,WNW,300,7.0,0.0,88,0.00,,,0.00,97,WeatherTracker,2013-02-26 22:01:00,
2013-02-26 16:06:00,30.2,27.1,28.53,NNW,330,6.0,0.0,88,0.00,,,0.00,81,WeatherTracker,2013-02-26 22:06:00,
2013-02-26 16:11:00,30.1,27.0,28.53,WNW,298,9.0,0.0,88,0.00,,,0.00,79,WeatherTracker,2013-02-26 22:11:00,
2013-02-26 16:16:00,30.0,27.2,28.54,NNW,328,5.0,0.0,89,0.00,,,0.00,81,WeatherTracker,2013-02-26 22:16:00,
2013-02-26 16:21:00,29.8,27.0,28.54,NNW,329,11.0,0.0,89,0.00,,,0.00,76,WeatherTracker,2013-02-26 22:21:00,
2013-02-26 16:26:00,29.7,26.9,28.54,NNW,341,9.0,0.0,89,0.00,,,0.00,67,WeatherTracker,2013-02-26 22:26:00,
2013-02-26 16:31:00,29.7,27.1,28.54,NNW,337,10.0,0.0,90,0.00,,,0.00,65,WeatherTracker,2013-02-26 22:31:00,
2013-02-26 16:36:00,29.5,26.9,28.54,NNW,336,5.0,0.0,90,0.00,,,0.00,65,WeatherTracker,2013-02-26 22:36:00,
2013-02-26 16:41:00,29.5,27.2,28.54,WNW,297,4.0,0.0,91,0.00,,,0.00,63,WeatherTracker,2013-02-26 22:41:00,
2013-02-26 16:46:00,29.4,27.1,28.55,NNW,327,4.0,0.0,91,0.00,,,0.00,56,WeatherTracker,2013-02-26 22:46:00,
2013-02-26 16:51:00,29.4,27.1,28.55,NNW,331,4.0,0.0,91,0.00,,,0.00,53,WeatherTracker,2013-02-26 22:51:00,
2013-02-26 16:56:00,29.4,27.4,28.55,NNE,14,5.0,0.0,92,0.00,,,0.00,51,WeatherTracker,2013-02-26 22:56:00,
2013-02-26 17:01:00,29.3,27.3,28.55,NNW,348,2.0,0.0,92,0.00,,,0.00,44,WeatherTracker,2013-02-26 23:01:00,
2013-02-26 17:06:00,29.2,27.2,28.55,NW,314,3.0,0.0,92,0.00,,,0.00,35,WeatherTracker,2013-02-26 23:06:00,
2013-02-26 17:11:00,29.2,27.2,28.55,NNW,342,5.0,0.0,92,0.00,,,0.00,26,WeatherTracker,2013-02-26 23:11:00,
2013-02-26 17:16:00,29.1,27.1,28.55,NNE,21,5.0,0.0,92,0.00,,,0.00,21,WeatherTracker,2013-02-26 23:16:00,
2013-02-26 17:21:00,29.0,27.0,28.55,NNW,329,4.0,0.0,92,0.00,,,0.00,18,WeatherTracker,2013-02-26 23:21:00,
2013-02-26 17:26:00,28.9,27.1,28.55,NW,324,5.0,0.0,93,0.00,,,0.00,12,WeatherTracker,2013-02-26 23:26:00,
2013-02-26 17:31:00,28.8,27.0,28.56,NW,323,7.0,0.0,93,0.00,,,0.00,11,WeatherTracker,2013-02-26 23:31:00,
2013-02-26 17:36:00,28.8,27.0,28.56,NNW,327,5.0,0.0,93,0.00,,,0.00,11,WeatherTracker,2013-02-26 23:36:00,
2013-02-26 17:41:00,28.7,26.9,28.56,NW,316,6.0,0.0,93,0.00,,,0.00,9,WeatherTracker,2013-02-26 23:41:00,
2013-02-26 17:47:00,28.6,26.8,28.56,NNW,340,7.0,0.0,93,0.00,,,0.00,9,WeatherTracker,2013-02-26 23:47:00,
2013-02-26 17:52:00,28.5,26.7,28.56,NNW,328,10.0,0.0,93,0.00,,,0.00,9,WeatherTracker,2013-02-26 23:52:00,
2013-02-26 17:57:00,28.5,26.7,28.56,NW,321,5.0,0.0,93,0.00,,,0.00,7,WeatherTracker,2013-02-26 23:57:00,
2013-02-26 18:02:00,28.5,26.7,28.57,NNW,333,5.0,0.0,93,0.00,,,0.00,5,WeatherTracker,2013-02-27 00:02:00,
2013-02-26 18:07:00,28.4,26.6,28.57,WNW,284,6.0,0.0,93,0.00,,,0.00,0,WeatherTracker,2013-02-27 00:07:00,
2013-02-26 18:12:00,28.4,26.6,28.57,NW,321,5.0,0.0,93,0.00,,,0.00,0,WeatherTracker,2013-02-27 00:12:00,
2013-02-26 18:17:00,28.3,26.5,28.58,NW,313,13.0,0.0,93,0.00,,,0.00,0,WeatherTracker,2013-02-27 00:17:00,
2013-02-26 18:22:00,28.2,26.4,28.58,NW,322,8.0,0.0,93,0.00,,,0.00,0,WeatherTracker,2013-02-27 00:22:00,
2013-02-26 18:27:00,28.2,26.4,28.58,NNW,348,5.0,0.0,93,0.00,,,0.00,0,WeatherTracker,2013-02-27 00:27:00,
2013-02-26 18:32:00,28.2,26.4,28.58,NW,311,5.0,0.0,93,0.00,,,0.00,0,WeatherTracker,2013-02-27 00:32:00,
2013-02-26 18:37:00,28.2,26.4,28.58,NNW,338,7.0,0.0,93,0.00,,,0.00,0,WeatherTracker,2013-02-27 00:37:00,
2013-02-26 18:42:00,28.2,26.4,28.59,WNW,291,6.0,0.0,93,0.00,,,0.00,0,WeatherTracker,2013-02-27 00:42:00,
2013-02-26 18:47:00,28.3,26.5,28.59,NW,313,5.0,0.0,93,0.00,,,0.00,0,WeatherTracker,2013-02-27 00:47:00,
2013-02-26 18:52:00,28.3,26.5,28.59,NW,310,11.0,0.0,93,0.00,,,0.00,0,WeatherTracker,2013-02-27 00:52:00,
2013-02-26 18:58:00,28.3,26.5,28.60,North,355,7.0,0.0,93,0.00,,,0.00,0,WeatherTracker,2013-02-27 00:58:00,
2013-02-26 19:03:00,28.4,26.6,28.60,NNW,333,5.0,0.0,93,0.00,,,0.00,0,WeatherTracker,2013-02-27 01:03:00,
2013-02-26 19:08:00,28.4,26.6,28.60,NNW,337,5.0,0.0,93,0.00,,,0.00,0,WeatherTracker,2013-02-27 01:08:00,
2013-02-26 19:13:00,28.4,26.6,28.60,NNW,327,9.0,0.0,93,0.00,,,0.00,0,WeatherTracker,2013-02-27 01:13:00,
2013-02-26 19:18:00,28.5,26.7,28.60,NNW,342,5.0,0.0,93,0.00,,,0.00,0,WeatherTracker,2013-02-27 01:18:00,
2013-02-26 19:23:00,28.5,26.7,28.60,NNE,20,8.0,0.0,93,0.00,,,0.00,0,WeatherTracker,2013-02-27 01:23:00,
2013-02-26 19:28:00,28.6,26.8,28.60,NW,310,11.0,0.0,93,0.00,,,0.00,0,WeatherTracker,2013-02-27 01:28:00,
2013-02-26 19:33:00,28.7,26.7,28.60,NNW,348,3.0,0.0,92,0.00,,,0.00,0,WeatherTracker,2013-02-27 01:33:00,
2013-02-26 19:38:00,28.7,26.7,28.60,WNW,298,6.0,0.0,92,0.00,,,0.00,0,WeatherTracker,2013-02-27 01:38:00,
2013-02-26 19:43:00,28.8,26.8,28.61,NW,306,5.0,0.0,92,0.00,,,0.00,0,WeatherTracker,2013-02-27 01:43:00,
2013-02-26 19:48:00,28.8,26.8,28.61,NNW,327,9.0,0.0,92,0.00,,,0.00,0,WeatherTracker,2013-02-27 01:48:00,
2013-02-26 19:53:00,28.9,26.9,28.61,NNW,348,7.0,0.0,92,0.00,,,0.00,0,WeatherTracker,2013-02-27 01:53:00,
2013-02-26 19:58:00,28.9,26.9,28.61,NNW,346,9.0,0.0,92,0.00,,,0.00,0,WeatherTracker,2013-02-27 01:58:00,
2013-02-26 20:03:00,29.0,27.0,28.61,NW,311,9.0,0.0,92,0.00,,,0.00,0,WeatherTracker,2013-02-27 02:03:00,
2013-02-26 20:08:00,29.0,27.0,28.61,NNE,27,9.0,0.0,92,0.00,,,0.00,0,WeatherTracker,2013-02-27 02:08:00,
2013-02-26 20:13:00,29.1,27.1,28.62,NNW,337,5.0,0.0,92,0.00,,,0.00,0,WeatherTracker,2013-02-27 02:13:00,
2013-02-26 20:18:00,29.2,26.9,28.62,NNW,331,6.0,0.0,91,0.00,,,0.00,0,WeatherTracker,2013-02-27 02:18:00,
2013-02-26 20:23:00,29.2,26.9,28.62,North,360,4.0,0.0,91,0.00,,,0.00,0,WeatherTracker,2013-02-27 02:23:00,
2013-02-26 20:28:00,29.1,26.8,28.62,NNW,336,3.0,0.0,91,0.00,,,0.00,0,WeatherTracker,2013-02-27 02:28:00,
2013-02-26 20:33:00,29.2,26.9,28.62,NNE,13,3.0,0.0,91,0.00,,,0.00,0,WeatherTracker,2013-02-27 02:33:00,
2013-02-26 20:38:00,29.2,26.9,28.62,NW,323,7.0,0.0,91,0.00,,,0.00,0,WeatherTracker,2013-02-27 02:38:00,
2013-02-26 20:43:00,29.1,26.8,28.63,WNW,288,6.0,0.0,91,0.00,,,0.00,0,WeatherTracker,2013-02-27 02:43:00,
2013-02-26 20:48:00,29.1,26.8,28.63,NW,324,7.0,0.0,91,0.00,,,0.00,0,WeatherTracker,2013-02-27 02:48:00,
2013-02-26 20:53:00,29.1,26.8,28.63,NNW,331,4.0,0.0,91,0.00,,,0.00,0,WeatherTracker,2013-02-27 02:53:00,
2013-02-26 20:58:00,29.0,26.7,28.63,NNW,327,4.0,0.0,91,0.00,,,0.00,0,WeatherTracker,2013-02-27 02:58:00,
2013-02-26 21:03:00,29.0,26.7,28.63,NNW,327,4.0,0.0,91,0.00,,,0.00,0,WeatherTracker,2013-02-27 03:03:00,
2013-02-26 21:08:00,29.0,26.7,28.63,NNW,345,4.0,0.0,91,0.00,,,0.00,0,WeatherTracker,2013-02-27 03:08:00,
2013-02-26 21:13:00,29.0,26.7,28.64,NNW,335,3.0,0.0,91,0.00,,,0.00,0,WeatherTracker,2013-02-27 03:13:00,
2013-02-26 21:18:00,29.0,26.7,28.64,NNW,331,4.0,0.0,91,0.00,,,0.00,0,WeatherTracker,2013-02-27 03:18:00,
2013-02-26 21:23:00,29.0,26.7,28.64,North,11,5.0,0.0,91,0.00,,,0.00,0,WeatherTracker,2013-02-27 03:23:00,
2013-02-26 21:28:00,29.0,26.7,28.64,NNW,341,3.0,0.0,91,0.00,,,0.00,0,WeatherTracker,2013-02-27 03:28:00,
2013-02-26 21:34:00,29.1,26.8,28.64,NNW,348,4.0,0.0,91,0.00,,,0.00,0,WeatherTracker,2013-02-27 03:34:00,
2013-02-26 21:39:00,29.1,26.8,28.64,NNE,19,9.0,0.0,91,0.00,,,0.00,0,WeatherTracker,2013-02-27 03:39:00,
2013-02-26 21:44:00,29.0,26.7,28.64,NNE,19,3.0,0.0,91,0.00,,,0.00,0,WeatherTracker,2013-02-27 03:44:00,
2013-02-26 21:49:00,29.0,26.4,28.64,NNW,338,4.0,0.0,90,0.00,,,0.00,0,WeatherTracker,2013-02-27 03:49:00,
2013-02-26 21:54:00,29.0,26.4,28.64,NNW,337,4.0,0.0,90,0.00,,,0.00,0,WeatherTracker,2013-02-27 03:54:00,
2013-02-26 21:59:00,29.0,26.4,28.64,North,5,5.0,0.0,90,0.00,,,0.00,0,WeatherTracker,2013-02-27 03:59:00,
2013-02-26 22:04:00,29.0,26.4,28.64,NW,323,6.0,0.0,90,0.00,,,0.00,0,WeatherTracker,2013-02-27 04:04:00,
2013-02-26 22:09:00,29.0,26.4,28.64,NNW,333,5.0,0.0,90,0.00,,,0.00,0,WeatherTracker,2013-02-27 04:09:00,
2013-02-26 22:14:00,29.0,26.4,28.64,NNE,28,6.0,0.0,90,0.00,,,0.00,0,WeatherTracker,2013-02-27 04:14:00,
2013-02-26 22:19:00,28.9,26.3,28.64,North,5,4.0,0.0,90,0.00,,,0.00,0,WeatherTracker,2013-02-27 04:19:00,
2013-02-26 22:24:00,28.9,26.3,28.64,NW,315,7.0,0.0,90,0.00,,,0.00,0,WeatherTracker,2013-02-27 04:24:00,
2013-02-26 22:29:00,28.9,26.1,28.64,NNW,333,1.0,0.0,89,0.00,,,0.00,0,WeatherTracker,2013-02-27 04:29:00,
2013-02-26 22:34:00,28.9,26.1,28.64,NW,321,6.0,0.0,89,0.00,,,0.00,0,WeatherTracker,2013-02-27 04:34:00,
2013-02-26 22:39:00,28.8,26.0,28.64,NNW,339,4.0,0.0,89,0.00,,,0.00,0,WeatherTracker,2013-02-27 04:39:00,
2013-02-26 22:44:00,28.8,26.0,28.65,NNE,14,6.0,0.0,89,0.00,,,0.00,0,WeatherTracker,2013-02-27 04:44:00,
2013-02-26 22:49:00,28.8,26.0,28.65,NNW,338,4.0,0.0,89,0.00,,,0.00,0,WeatherTracker,2013-02-27 04:49:00,
2013-02-26 22:54:00,28.8,26.0,28.65,NW,318,10.0,0.0,89,0.00,,,0.00,0,WeatherTracker,2013-02-27 04:54:00,
2013-02-26 22:59:00,28.8,26.0,28.65,NW,304,4.0,0.0,89,0.00,,,0.00,0,WeatherTracker,2013-02-27 04:59:00,
2013-02-26 23:00:00,28.8,26.0,28.65,NW,313,3.0,0.0,89,0.00,,,0.00,0,WeatherTracker,2013-02-27 05:00:00,
2013-02-26 23:05:00,28.8,26.0,28.65,NNW,344,4.0,0.0,89,0.00,,,0.00,0,WeatherTracker,2013-02-27 05:05:00,
2013-02-26 23:10:00,28.7,25.9,28.65,NW,326,7.0,0.0,89,0.00,,,0.00,0,WeatherTracker,2013-02-27 05:10:00,
2013-02-26 23:15:00,28.7,25.9,28.65,NNW,348,3.0,0.0,89,0.00,,,0.00,0,WeatherTracker,2013-02-27 05:15:00,
2013-02-26 23:20:00,28.6,25.8,28.65,NNW,340,5.0,0.0,89,0.00,,,0.00,0,WeatherTracker,2013-02-27 05:20:00,
2013-02-26 23:25:00,28.6,25.8,28.65,NNW,341,4.0,0.0,89,0.00,,,0.00,0,WeatherTracker,2013-02-27 05:25:00,
2013-02-26 23:31:00,28.6,25.8,28.65,NW,325,9.0,0.0,89,0.00,,,0.00,0,WeatherTracker,2013-02-27 05:31:00,
2013-02-26 23:35:00,28.5,25.7,28.65,NW,324,2.0,0.0,89,0.00,,,0.00,0,WeatherTracker,2013-02-27 05:35:00,
2013-02-26 23:41:00,28.5,25.7,28.65,NNW,328,3.0,0.0,89,0.00,,,0.00,0,WeatherTracker,2013-02-27 05:41:00,
2013-02-26 23:46:00,28.5,25.4,28.65,NW,325,6.0,0.0,88,0.00,,,0.00,0,WeatherTracker,2013-02-27 05:46:00,
2013-02-26 23:51:00,28.4,25.3,28.65,NNW,328,4.0,0.0,88,0.00,,,0.00,0,WeatherTracker,2013-02-27 05:51:00,
2013-02-26 23:56:00,28.4,25.3,28.65,NNW,338,6.0,0.0,88,0.00,,,0.00,0,WeatherTracker,2013-02-27 05:56:00,